EW6287 Weather Reports


time (UTC)temp
F
wind
direction
speed
knots
gust
knots
rain 1hr
in
rain 24hr
in
rain mn
in
humidity
%
barometer
mb
20240614130034 63 267 0.0 0.0 0.00 0.00 0.00 78 1016.8
20240614124530 62 267 0.0 0.0 0.00 0.00 0.00 81 1016.7
20240614123037 60 267 0.0 0.0 0.00 0.00 0.00 83 1016.4
20240614121526 59 267 0.0 0.0 0.00 0.00 0.00 86 1016.3
20240614120025 57 267 0.0 0.0 0.00 0.00 0.00 88 1016.2
20240614114543 56 267 0.0 0.0 0.00 0.00 0.00 89 1016.0
20240614113022 55 267 0.0 0.0 0.00 0.00 0.00 89 1015.7
20240614111542 55 267 0.0 0.0 0.00 0.00 0.00 89 1015.7
20240614110020 55 267 0.0 0.0 0.00 0.00 0.00 88 1015.7
20240614104519 55 267 0.0 0.0 0.00 0.00 0.00 88 1015.3
20240614103017 55 267 0.0 0.9 0.00 0.00 0.00 88 1015.1
20240614101518 55 267 0.0 0.9 0.00 0.00 0.00 88 1015.0
20240614100017 55 267 0.0 0.0 0.00 0.00 0.00 88 1014.8
20240614094529 55 267 0.0 0.0 0.00 0.00 0.00 88 1014.6
20240614093034 55 267 0.0 0.0 0.00 0.00 0.00 88 1014.5
20240614091512 56 267 0.0 0.0 0.00 0.00 0.00 87 1014.3
20240614090010 55 267 0.0 0.0 0.00 0.00 0.00 87 1014.2
20240614084516 55 267 0.0 1.7 0.00 0.00 0.00 87 1014.3
20240614083007 55 267 0.0 2.6 0.00 0.00 0.00 86 1014.0
20240614081505 56 267 0.0 0.0 0.00 0.00 0.00 85 1013.7
20240614080004 56 267 0.0 0.0 0.00 0.00 0.00 85 1013.8
20240614074502 56 267 0.0 0.0 0.00 0.00 0.00 84 1013.8
20240614073005 56 267 0.0 1.7 0.00 0.00 0.00 84 1013.5
20240614071559 57 267 0.0 0.0 0.00 0.00 0.00 82 1013.7
20240614070116 57 267 0.0 0.0 0.00 0.00 0.00 81 1013.7
20240614064556 58 267 0.0 2.6 0.00 0.00 0.00 80 1013.5
20240614063057 58 267 0.0 1.7 0.00 0.00 0.00 79 1013.5
20240614061552 58 267 0.0 2.6 0.00 0.00 0.00 79 1013.3
20240614060050 59 267 0.0 4.3 0.00 0.00 0.00 79 1013.1
20240614054550 58 267 0.0 2.6 0.00 0.00 0.00 79 1013.1
20240614053049 59 267 0.0 0.9 0.00 0.00 0.00 79 1013.1
20240614051549 59 267 0.0 2.6 0.00 0.00 0.00 78 1012.8
20240614050049 60 267 0.0 2.6 0.00 0.00 0.00 76 1012.7
20240614044549 60 267 0.0 2.6 0.00 0.00 0.00 76 1012.7
20240614043040 60 267 0.0 2.6 0.00 0.00 0.00 75 1012.6
20240614041542 61 267 0.9 3.5 0.00 0.00 0.00 75 1012.3
20240614040040 61 267 0.0 2.6 0.00 0.00 0.00 74 1012.4
20240614034541 61 267 0.0 0.0 0.00 0.00 0.00 73 1012.3
20240614033043 62 267 0.0 1.7 0.00 0.00 0.00 72 1012.0
20240614031535 63 267 0.0 2.6 0.00 0.00 0.00 71 1011.9
20240614030038 63 267 0.0 0.9 0.00 0.00 0.00 68 1011.8
20240614024533 64 267 0.9 3.5 0.00 0.00 0.00 66 1011.5
20240614023031 65 267 0.9 4.3 0.00 0.00 0.00 65 1011.1
20240614021531 65 267 0.0 5.2 0.00 0.00 0.00 64 1010.9
20240614020028 66 271 0.9 3.5 0.00 0.00 0.00 63 1010.8
20240614014527 67 274 0.9 7.0 0.00 0.00 0.00 61 1010.5
20240614013028 68 282 0.9 4.3 0.00 0.00 0.00 59 1010.5
20240614011540 68 300 0.0 7.8 0.00 0.00 0.00 58 1010.5
20240614010024 69 302 0.0 7.8 0.00 0.00 0.00 58 1010.4
20240614004523 70 274 0.9 6.1 0.00 0.00 0.00 57 1010.1
20240614003024 70 294 0.9 8.7 0.00 0.00 0.00 55 1010.2
20240614001532 70 280 2.6 13.9 0.00 0.00 0.00 55 1010.1
20240614000020 71 288 2.6 9.6 0.00 0.00 0.00 54 1009.9
20240613234523 72 318 1.7 10.4 0.00 0.00 0.00 51 1009.6
20240613233017 73 276 0.9 10.4 0.00 0.00 0.00 51 1009.5
20240613231515 73 285 1.7 7.8 0.00 0.00 0.00 53 1009.2
20240613230020 74 288 1.7 10.4 0.00 0.26 0.00 50 1008.9
20240613224512 75 299 0.9 12.2 0.00 0.26 0.00 48 1008.9
20240613223012 75 307 1.7 11.3 0.00 0.26 0.00 45 1008.6
20240613221514 75 285 1.7 12.2 0.00 0.26 0.00 46 1008.2
20240613220009 76 269 3.5 10.4 0.00 0.26 0.00 43 1008.2
20240613214510 76 296 1.7 8.7 0.00 0.26 0.00 44 1008.1
20240613213007 76 287 4.3 13.9 0.00 0.26 0.00 41 1007.8
20240613211511 76 318 3.5 11.3 0.00 0.26 0.00 43 1007.7
20240613210007 76 269 5.2 13.0 0.00 0.26 0.00 40 1007.7
20240613204506 77 276 4.3 12.2 0.00 0.26 0.00 39 1007.6
20240613203007 78 228 4.3 12.2 0.00 0.26 0.00 38 1007.3
20240613201503 77 267 5.2 20.9 0.00 0.26 0.00 38 1007.5
20240613200010 75 334 1.7 10.4 0.00 0.26 0.00 47 1007.8
20240613194505 76 259 2.6 9.6 0.00 0.26 0.00 42 1007.6
20240613193001 77 287 0.9 7.0 0.00 0.26 0.00 42 1007.2
20240613191501 74 341 3.5 12.2 0.00 0.26 0.00 45 1007.6
20240613190104 75 295 0.9 4.3 0.00 0.26 0.00 45 1007.6
20240613184612 75 207 2.6 10.4 0.00 0.26 0.00 42 1007.6
20240613183108 75 314 5.2 13.9 0.00 0.26 0.00 41 1007.7
20240613181607 75 188 1.7 8.7 0.00 0.26 0.00 42 1007.9
20240613180100 76 304 1.7 10.4 0.00 0.26 0.00 44 1007.7
20240613174636 75 232 0.9 9.6 0.00 0.26 0.00 47 1007.8
20240613173117 76 255 0.9 8.7 0.00 0.26 0.00 43 1007.8
20240613171555 76 265 2.6 8.7 0.00 0.26 0.00 46 1007.8
20240613170132 74 349 0.9 6.1 0.00 0.26 0.00 43 1007.7
20240613164600 75 251 0.9 7.8 0.00 0.26 0.00 47 1007.9
20240613163114 75 278 1.7 7.0 0.00 0.26 0.00 46 1007.7
20240613161552 74 282 1.7 10.4 0.00 0.26 0.00 45 1007.6
20240613160108 74 306 1.7 7.8 0.00 0.26 0.00 51 1007.6
20240613154551 73 218 0.9 6.1 0.00 0.26 0.00 51 1007.6
20240613153107 73 351 1.7 7.8 0.00 0.26 0.00 49 1007.4
20240613151545 72 292 0.0 6.1 0.00 0.26 0.00 51 1007.3
20240613150047 71 290 0.0 6.1 0.00 0.26 0.00 53 1007.4
20240613144538 70 288 1.7 5.2 0.00 0.26 0.00 55 1007.2
20240613143035 69 282 2.6 6.1 0.00 0.26 0.00 60 1007.3
20240613141532 68 304 1.7 7.0 0.00 0.26 0.00 60 1007.3
20240613140028 68 288 2.6 6.1 0.00 0.26 0.00 66 1006.9
20240613134525 67 297 1.7 7.0 0.00 0.26 0.00 70 1006.8
20240613133029 65 301 1.7 8.7 0.00 0.26 0.00 73 1006.8
20240613131526 64 274 1.7 7.8 0.00 0.26 0.00 77 1006.7